Regional Weather Roundup
Issued by NWS

Home | Current Version | Previous Version | Text Only | Print | Product List | Glossary On
Versions: 1 2 3 4 5 6 7 8 9 10 11 12 13 14 15 16 17 18 19 20 21 22 23 24 25 26 27 28 29 30 31 32 33 34 35 36 37 38 39 40 41 42 43 44 45 46 47 48 49 50
000
ASUS44 KOUN 241010
RWROK

WEATHER ROUNDUP FOR OKLAHOMA
NATIONAL WEATHER SERVICE NORMAN OK
500 AM CDT WED AUG 24 2016

NOTE: "FAIR" INDICATES FEW OR NO CLOUDS BELOW 12,000 FEET WITH NO
      SIGNIFICANT WEATHER AND/OR OBSTRUCTIONS TO VISIBILITY.

OKZ001>007-009>012-014-015-017-241100-
NORTHWEST OKLAHOMA AND THE PANHANDLE

CITY           SKY/WX    TMP DP  RH WIND       PRES   REMARKS
GAGE           CLOUDY    75  62  64 S18       30.00R
GUYMON         LGT RAIN  73  63  70 SW21      30.02R
ENID/WOODRING  CLOUDY    79  66  65 S3        29.95S
$$

OKZ016-021>023-033>039-044-045-241100-
SOUTHWEST OKLAHOMA

CITY           SKY/WX    TMP DP  RH WIND       PRES   REMARKS
LAWTON/REGL    CLOUDY    76  67  73 S8        30.03R
LAWTON/FT SILL CLOUDY    77  68  74 S12       30.02R
FREDERICK      PTCLDY    75  68  78 S13       30.00S
CLINTON        PTCLDY    74  63  68 SW17      30.03S
HOBART         CLOUDY    73  67  81 SW12      30.02R
ALTUS AFB      PTCLDY    70  65  84 S8        30.02S
$$

OKZ018>020-024>031-241100-
CENTRAL OKLAHOMA

CITY           SKY/WX    TMP DP  RH WIND       PRES   REMARKS
OKLAHOMA CITY  CLOUDY    78  68  71 S15       30.01R
OKC/WILEY POST CLOUDY    79  67  66 S18       30.00R
OKC/TINKER AFB PTCLDY    78  68  70 S18       30.00R
STILLWATER     MOCLDY    80  67  64 S8        29.98R
GUTHRIE        MOCLDY    82  67  60 S16G22    29.97R
$$

OKZ008-013-054>072-241100-
NORTHEAST OKLAHOMA

CITY           SKY/WX    TMP DP  RH WIND       PRES   REMARKS
TULSA          MOCLDY    82  71  69 S12       29.99R
TULSA/JONES    PTCLDY    81  73  76 S13       30.00R
PONCA CITY     CLOUDY    82  66  58 SW14G22   29.96S
BARTLESVILLE   CLOUDY    80  70  71 S6        29.99S
MUSKOGEE       CLEAR     80  71  74 S12       30.03S
$$

OKZ032-040>043-046>053-073>077-241100-
SOUTH CENTRAL/SOUTHEAST OKLAHOMA

CITY           SKY/WX    TMP DP  RH WIND       PRES   REMARKS
ARDMORE/DWNTWN PTCLDY    77  66  69 SW7       30.05F
MCALESTER      PTCLDY    79  70  74 S10G21    30.05S
$$





USA.gov is the U.S. government's official web portal to all federal, state and local government web resources and services.